IZ1PKI Weather Reports


time (UTC)temp
C
wind
direction
speed
KPH
gust
KPH
rain 1hr
cm
rain 24hr
cm
rain mn
cm
humidity
%
barometer
mb
20260507210818 14 0 0.0 3.2 0.00 0.00 0.00 86 1016.4
20260507210318 14 0 0.0 4.8 0.00 0.00 0.00 86 1016.6
20260507205818 14 0 3.2 6.4 0.00 0.00 0.00 86 1016.5
20260507205321 14 0 1.6 6.4 0.00 0.00 0.00 86 1016.5
20260507204818 14 0 6.4 6.4 0.00 0.00 0.00 86 1016.6
20260507204321 14 0 1.6 3.2 0.00 0.00 0.00 86 1016.5
20260507203824 14 0 0.0 3.2 0.00 0.00 0.00 86 1016.5
20260507203324 15 0 0.0 3.2 0.00 0.00 0.00 86 1016.6
20260507202821 15 0 3.2 4.8 0.00 0.00 0.00 86 1016.4
20260507202318 15 0 3.2 3.2 0.00 0.00 0.00 86 1016.5
20260507201821 15 0 1.6 4.8 0.00 0.00 0.00 85 1016.5
20260507201321 15 0 1.6 3.2 0.00 0.00 0.00 85 1016.4
20260507200821 15 0 1.6 3.2 0.00 0.00 0.00 85 1016.3
20260507200318 15 0 1.6 3.2 0.00 0.00 0.00 85 1016.3
20260507195818 15 0 0.0 0.0 0.00 0.00 0.00 85 1016.2
20260507195318 15 0 0.0 0.0 0.00 0.00 0.00 85 1016.3
20260507194821 15 0 0.0 0.0 0.00 0.00 0.00 85 1016.2
20260507194321 15 0 0.0 0.0 0.00 0.00 0.00 85 1016.2
20260507193818 15 0 0.0 0.0 0.00 0.00 0.00 85 1016.2
20260507193319 15 0 0.0 0.0 0.00 0.00 0.00 84 1016.3
20260507192821 15 0 0.0 3.2 0.00 0.00 0.00 84 1016.2
20260507192327 15 0 1.6 3.2 0.00 0.00 0.00 84 1016.2
20260507191818 15 0 0.0 3.2 0.00 0.00 0.00 84 1016.2
20260507191318 15 0 1.6 3.2 0.00 0.00 0.00 84 1016.1
20260507190821 15 0 1.6 3.2 0.00 0.00 0.00 83 1016.1
20260507190318 15 0 1.6 3.2 0.00 0.00 0.00 83 1016.1
20260507185818 15 0 1.6 3.2 0.00 0.00 0.00 83 1016.1
20260507185318 15 0 1.6 4.8 0.00 0.00 0.00 83 1016.1
20260507184824 15 0 1.6 4.8 0.00 0.00 0.00 84 1016.2
20260507184318 15 0 1.6 3.2 0.00 0.00 0.00 83 1016.2
20260507183818 15 0 0.0 4.8 0.00 0.00 0.00 83 1016.3
20260507183318 15 0 1.6 4.8 0.00 0.00 0.00 83 1016.2
20260507182821 15 0 1.6 4.8 0.00 0.00 0.00 83 1016.2
20260507182321 15 0 1.6 4.8 0.00 0.00 0.00 82 1016.1
20260507181818 16 0 1.6 4.8 0.00 0.00 0.00 83 1016.1
20260507181318 16 0 4.8 6.4 0.00 0.00 0.00 83 1016.0
20260507180824 16 0 3.2 12.9 0.00 0.00 0.00 82 1016.2
20260507180318 16 0 4.8 9.7 0.00 0.00 0.00 82 1016.2
20260507175827 16 0 0.0 6.4 0.00 0.00 0.00 81 1016.2
20260507175318 16 0 3.2 4.8 0.00 0.00 0.00 81 1016.2
20260507174818 16 0 1.6 4.8 0.00 0.00 0.00 80 1016.2
20260507174318 16 0 1.6 8.0 0.00 0.00 0.00 80 1016.2
20260507173821 16 0 4.8 6.4 0.00 0.00 0.00 80 1016.1
20260507173318 16 0 3.2 4.8 0.00 0.00 0.00 80 1016.2
20260507172823 16 0 3.2 9.7 0.00 0.00 0.00 81 1016.2
20260507172327 17 0 1.6 8.0 0.00 0.00 0.00 79 1016.4
20260507171821 17 0 3.2 12.9 0.00 0.00 0.00 79 1016.2
20260507171324 17 0 4.8 6.4 0.00 0.00 0.00 79 1016.1
20260507170818 17 0 4.8 8.0 0.00 0.00 0.00 79 1016.1
20260507170321 17 0 3.2 9.7 0.00 0.00 0.00 78 1016.2
20260507165821 17 0 3.2 14.5 0.00 0.00 0.00 77 1016.0
20260507165318 17 0 3.2 6.4 0.00 0.00 0.00 78 1016.0
20260507164821 17 0 4.8 9.7 0.00 0.00 0.00 77 1016.0
20260507164321 17 0 4.8 9.7 0.00 0.00 0.00 77 1016.0
20260507163818 17 0 3.2 16.1 0.00 0.00 0.00 76 1016.0
20260507163318 17 0 4.8 12.9 0.00 0.00 0.00 77 1016.1
20260507162821 17 0 4.8 16.1 0.00 0.00 0.00 78 1016.0
20260507162321 17 0 3.2 8.0 0.00 0.00 0.00 78 1016.0
20260507161821 17 0 4.8 12.9 0.00 0.00 0.00 77 1016.0
20260507161318 17 0 9.7 9.7 0.00 0.00 0.00 78 1016.1
20260507160824 17 0 4.8 14.5 0.00 0.00 0.00 77 1015.9
20260507160318 17 0 4.8 9.7 0.00 0.00 0.00 77 1016.0
20260507155824 17 0 1.6 14.5 0.00 0.00 0.00 77 1016.0
20260507155321 17 0 4.8 12.9 0.00 0.00 0.00 76 1016.0
20260507154818 18 0 3.2 8.0 0.00 0.00 0.00 75 1016.1
20260507154321 18 0 6.4 12.9 0.00 0.00 0.00 76 1016.1
20260507153818 17 0 4.8 12.9 0.00 0.00 0.00 76 1016.1
20260507153321 17 0 4.8 17.7 0.00 0.00 0.00 76 1016.0
20260507152818 17 0 12.9 14.5 0.00 0.00 0.00 76 1016.0
20260507152321 17 0 4.8 16.1 0.00 0.00 0.00 76 1016.1
20260507151818 18 0 8.0 16.1 0.00 0.00 0.00 77 1016.1
20260507151318 17 0 6.4 9.7 0.00 0.00 0.00 77 1016.1
20260507150818 17 0 3.2 12.9 0.00 0.00 0.00 77 1016.1
20260507150318 17 0 4.8 9.7 0.00 0.00 0.00 77 1016.1
20260507145818 17 0 3.2 9.7 0.00 0.00 0.00 77 1016.1
20260507145321 17 0 6.4 12.9 0.00 0.00 0.00 77 1016.0
20260507144824 17 0 6.4 17.7 0.00 0.00 0.00 75 1016.1
20260507144318 18 0 6.4 17.7 0.00 0.00 0.00 74 1016.1
20260507143824 18 0 3.2 12.9 0.00 0.00 0.00 75 1016.1
20260507143318 18 0 4.8 14.5 0.00 0.00 0.00 76 1016.1
20260507142818 18 0 6.4 9.7 0.00 0.00 0.00 77 1016.2
20260507142318 17 0 3.2 20.9 0.00 0.00 0.00 76 1016.2
20260507141818 17 0 8.0 16.1 0.00 0.00 0.00 75 1016.3
20260507141321 17 0 8.0 12.9 0.00 0.00 0.00 76 1016.2
20260507140818 18 0 3.2 17.7 0.00 0.00 0.00 77 1016.2
20260507140324 18 0 8.0 12.9 0.00 0.00 0.00 78 1016.1
20260507135818 18 0 1.6 17.7 0.00 0.00 0.00 78 1016.1
20260507135321 17 0 6.4 14.5 0.00 0.00 0.00 79 1016.1
20260507134819 17 0 9.7 22.5 0.00 0.00 0.00 78 1016.2
20260507134321 18 0 12.9 24.1 0.00 0.00 0.00 77 1016.1
20260507133818 18 0 8.0 12.9 0.00 0.00 0.00 76 1016.2
20260507133318 18 0 3.2 16.1 0.00 0.00 0.00 76 1016.3
20260507132818 18 0 9.7 14.5 0.00 0.00 0.00 77 1016.2
20260507132318 18 0 9.7 14.5 0.00 0.00 0.00 78 1016.2
20260507131824 17 0 4.8 17.7 0.00 0.00 0.00 78 1016.3
20260507131318 17 0 3.2 17.7 0.00 0.00 0.00 79 1016.3
20260507130821 17 0 4.8 19.3 0.00 0.00 0.00 78 1016.1
20260507130318 17 0 8.0 16.1 0.00 0.00 0.00 78 1016.2
20260507125821 17 0 3.2 14.5 0.00 0.00 0.00 78 1016.2
20260507125318 17 0 4.8 9.7 0.00 0.00 0.00 78 1016.2
20260507124824 17 0 6.4 9.7 0.00 0.00 0.00 78 1016.3
20260507124318 17 0 9.7 14.5 0.00 0.00 0.00 77 1016.1
20260507123818 17 0 4.8 16.1 0.00 0.00 0.00 78 1016.1
20260507123318 17 0 3.2 16.1 0.00 0.00 0.00 79 1016.0
20260507122824 17 0 8.0 14.5 0.00 0.00 0.00 78 1016.0
20260507122324 17 0 6.4 12.9 0.00 0.00 0.00 79 1016.0
20260507121818 17 0 4.8 14.5 0.00 0.00 0.00 80 1016.0
20260507121324 17 0 12.9 16.1 0.00 0.00 0.00 80 1016.0
20260507120824 17 0 4.8 12.9 0.00 0.00 0.00 79 1016.1
20260507120318 17 0 6.4 8.0 0.00 0.00 0.00 78 1016.1
20260507115824 17 0 3.2 6.4 0.00 0.00 0.00 78 1016.2
20260507115318 17 0 3.2 14.5 0.00 0.00 0.00 78 1016.0
20260507114818 17 0 4.8 14.5 0.00 0.00 0.00 78 1016.1
20260507114321 17 0 6.4 19.3 0.00 0.00 0.00 77 1016.3
20260507113818 17 0 3.2 16.1 0.00 0.00 0.00 76 1016.4
20260507113318 17 0 9.7 12.9 0.00 0.00 0.00 76 1016.4
20260507112818 17 0 4.8 17.7 0.00 0.00 0.00 77 1016.4
20260507112318 17 0 4.8 19.3 0.00 0.00 0.00 76 1016.5
20260507111821 17 0 4.8 12.9 0.00 0.00 0.00 76 1016.5
20260507111318 17 0 3.2 16.1 0.00 0.00 0.00 77 1016.5
20260507110821 17 0 6.4 19.3 0.00 0.00 0.00 80 1016.4
20260507110321 17 0 4.8 16.1 0.00 0.00 0.00 79 1016.4
20260507105821 17 0 1.6 14.5 0.00 0.00 0.00 79 1016.3
20260507105321 17 0 14.5 14.5 0.00 0.00 0.00 80 1016.1
20260507104824 17 0 6.4 14.5 0.00 0.00 0.00 80 1016.3
20260507104324 17 0 3.2 16.1 0.00 0.00 0.00 79 1016.3
20260507103821 17 0 4.8 19.3 0.00 0.00 0.00 80 1016.3
20260507103321 16 0 8.0 19.3 0.00 0.00 0.00 82 1016.3
20260507102818 16 0 3.2 14.5 0.00 0.00 0.00 83 1016.4
20260507102324 16 0 4.8 20.9 0.00 0.00 0.00 83 1016.4
20260507101821 16 0 9.7 19.3 0.00 0.00 0.00 83 1016.3
20260507101318 16 0 6.4 16.1 0.00 0.00 0.00 82 1016.1
20260507100818 16 0 3.2 12.9 0.00 0.00 0.00 82 1016.3
20260507100321 16 0 1.6 17.7 0.00 0.00 0.00 81 1016.1
20260507095821 16 0 8.0 20.9 0.00 0.00 0.00 80 1016.1
20260507095318 17 0 14.5 19.3 0.00 0.00 0.00 80 1016.4
20260507094818 17 0 4.8 16.1 0.00 0.00 0.00 79 1016.3
20260507094324 17 0 19.3 19.3 0.00 0.00 0.00 80 1016.4
20260507093821 17 0 1.6 14.5 0.00 0.00 0.00 81 1016.3
20260507093318 17 0 4.8 12.9 0.00 0.00 0.00 80 1016.3
20260507092821 17 0 12.9 19.3 0.00 0.00 0.00 80 1016.3
20260507092321 17 0 3.2 17.7 0.00 0.00 0.00 80 1016.3
20260507091821 17 0 8.0 19.3 0.00 0.00 0.00 80 1016.1
20260507091324 17 0 1.6 20.9 0.00 0.00 0.00 79 1016.2
20260507090818 17 0 4.8 14.5 0.00 0.00 0.00 80 1016.1
20260507090318 16 0 3.2 24.1 0.00 0.00 0.00 80 1015.9
20260507085818 16 0 6.4 19.3 0.00 0.00 0.00 80 1016.0
20260507085324 16 0 3.2 12.9 0.00 0.00 0.00 81 1015.9
20260507084821 16 0 9.7 16.1 0.00 0.00 0.00 81 1015.9
20260507084318 16 0 4.8 19.3 0.00 0.00 0.00 81 1015.9
20260507083821 16 0 9.7 19.3 0.00 0.00 0.00 82 1015.7
20260507083318 16 0 8.0 16.1 0.00 0.00 0.00 82 1015.5
20260507082818 16 0 4.8 17.7 0.00 0.00 0.00 82 1015.5
20260507082318 16 0 3.2 22.5 0.00 0.00 0.00 82 1015.6
20260507081818 16 0 4.8 22.5 0.00 0.00 0.00 82 1015.5
20260507081318 15 0 4.8 17.7 0.00 0.00 0.00 82 1015.3
20260507080821 15 0 14.5 17.7 0.00 0.00 0.00 82 1015.2
20260507080324 16 0 1.6 12.9 0.00 0.00 0.00 81 1015.3
20260507075821 16 0 6.4 16.1 0.00 0.00 0.00 80 1015.4
20260507075318 16 0 3.2 19.3 0.00 0.00 0.00 79 1015.3
20260507074818 16 0 4.8 16.1 0.00 0.00 0.00 79 1015.0
20260507074318 16 0 3.2 14.5 0.00 0.00 0.00 79 1014.9
20260507073824 15 0 3.2 14.5 0.00 0.00 0.00 79 1015.0
20260507073318 15 0 3.2 12.9 0.00 0.00 0.00 79 1015.0
20260507072824 15 0 1.6 17.7 0.00 0.00 0.00 79 1015.0
20260507072324 15 0 3.2 9.7 0.00 0.00 0.00 78 1014.9
20260507071818 15 0 3.2 16.1 0.00 0.00 0.00 79 1015.0
20260507071321 15 0 6.4 9.7 0.00 0.00 0.00 78 1015.1
20260507070824 16 0 6.4 20.9 0.00 0.00 0.00 78 1015.0
20260507070318 16 0 8.0 12.9 0.00 0.00 0.00 79 1014.9
20260507065818 15 0 3.2 16.1 0.00 0.00 0.00 79 1014.8
20260507065321 15 0 8.0 16.1 0.00 0.00 0.00 80 1014.8
20260507064818 15 0 4.8 14.5 0.00 0.08 0.00 81 1014.9
20260507064318 15 0 3.2 9.7 0.00 0.53 0.00 81 1014.9
20260507063818 15 0 3.2 8.0 0.00 0.69 0.00 82 1014.9
20260507063318 15 0 6.4 12.9 0.00 0.69 0.00 82 1014.8
20260507062824 15 0 4.8 9.7 0.00 0.69 0.00 82 1014.8
20260507062318 15 0 4.8 4.8 0.00 0.69 0.00 83 1014.9
20260507061818 15 0 3.2 6.4 0.00 0.71 0.00 82 1014.8
20260507061327 15 0 6.4 9.7 0.00 0.71 0.00 83 1014.8
20260507060821 15 0 1.6 9.7 0.00 0.71 0.00 83 1014.6
20260507060327 14 0 3.2 12.9 0.00 0.71 0.00 83 1014.7
20260507055821 14 0 0.0 4.8 0.00 0.71 0.00 83 1014.7
20260507055321 14 0 0.0 6.4 0.00 0.71 0.00 83 1014.7
20260507054821 14 0 3.2 12.9 0.00 0.71 0.00 83 1014.8
20260507054321 14 0 0.0 6.4 0.00 0.71 0.00 84 1014.7
20260507053821 14 0 4.8 4.8 0.00 0.71 0.00 84 1014.7
20260507053324 14 0 0.0 6.4 0.00 0.71 0.00 84 1014.6
20260507052818 14 0 4.8 6.4 0.00 0.71 0.00 85 1014.5
20260507052321 14 0 1.6 4.8 0.00 0.71 0.00 85 1014.5
20260507051821 14 0 0.0 4.8 0.00 0.71 0.00 85 1014.6
20260507051321 14 0 6.4 12.9 0.00 0.71 0.00 85 1014.4
20260507050821 13 0 3.2 6.4 0.00 0.71 0.00 85 1014.3
20260507050321 13 0 3.2 8.0 0.00 0.71 0.00 86 1014.3
20260507045818 13 0 0.0 3.2 0.00 0.71 0.00 86 1014.2
20260507045318 13 0 1.6 4.8 0.00 0.71 0.00 86 1014.2
20260507044818 13 0 0.0 4.8 0.00 0.71 0.00 86 1014.1
20260507044321 13 0 3.2 4.8 0.00 0.71 0.00 86 1014.1
20260507043824 14 0 1.6 8.0 0.00 0.71 0.00 86 1014.1
20260507043321 14 0 0.0 4.8 0.00 0.71 0.00 86 1014.2
20260507042821 14 0 3.2 8.0 0.00 0.71 0.00 86 1014.1
20260507042324 14 0 0.0 6.4 0.00 0.71 0.00 86 1014.1
20260507041818 14 0 4.8 4.8 0.00 0.71 0.00 86 1014.0
20260507041321 14 0 0.0 6.4 0.00 0.74 0.00 86 1014.0
20260507040818 14 0 0.0 4.8 0.00 0.74 0.00 86 1013.9
20260507040321 14 0 3.2 8.0 0.00 0.74 0.00 86 1014.0
20260507035821 14 0 0.0 6.4 0.00 0.74 0.00 86 1014.0
20260507035318 14 0 0.0 12.9 0.00 0.74 0.00 86 1014.0
20260507034821 14 0 1.6 9.7 0.00 0.74 0.00 86 1014.0
20260507034321 14 0 6.4 6.4 0.00 0.74 0.00 85 1014.0
20260507033821 14 0 0.0 4.8 0.00 0.74 0.00 85 1014.0
20260507033324 14 0 1.6 6.4 0.00 0.74 0.00 85 1014.0
20260507032824 14 0 4.8 6.4 0.00 0.74 0.00 85 1014.0
20260507032318 14 0 1.6 4.8 0.00 0.74 0.00 85 1014.0
20260507031818 14 0 1.6 4.8 0.00 0.74 0.00 85 1013.9
20260507031318 14 0 1.6 14.5 0.00 0.74 0.00 85 1013.9
20260507030821 14 0 1.6 14.5 0.00 0.74 0.00 85 1013.9
20260507030321 14 0 1.6 6.4 0.00 0.74 0.00 85 1014.0
20260507025818 14 0 1.6 4.8 0.00 0.74 0.00 85 1014.0
20260507025321 14 0 1.6 9.7 0.00 0.74 0.00 85 1014.0
20260507024821 14 0 4.8 6.4 0.00 0.74 0.00 85 1013.9
20260507024318 14 0 3.2 8.0 0.00 0.74 0.00 85 1013.9
20260507023824 14 0 1.6 12.9 0.00 0.76 0.00 85 1014.0
20260507023318 14 0 0.0 12.9 0.00 0.76 0.00 85 1014.0
20260507022818 14 0 1.6 8.0 0.00 0.79 0.00 85 1014.0
20260507022318 14 0 4.8 12.9 0.00 0.84 0.00 86 1014.0
20260507021827 14 0 0.0 6.4 0.00 0.84 0.00 86 1014.0
20260507021322 14 0 0.0 8.0 0.00 0.84 0.00 86 1014.0
20260507020819 14 0 3.2 8.0 0.00 0.89 0.00 85 1014.0
20260507020318 14 0 1.6 6.4 0.00 0.97 0.00 86 1013.9
20260507015818 14 0 3.2 6.4 0.00 1.12 0.00 85 1014.0
20260507015318 14 0 3.2 6.4 0.00 1.22 0.00 85 1014.0
20260507014818 14 0 4.8 12.9 0.00 1.27 0.00 85 1013.9
20260507014318 14 0 1.6 8.0 0.00 1.40 0.00 85 1013.8
20260507013821 15 0 1.6 8.0 0.00 1.63 0.00 85 1013.8
20260507013318 15 0 0.0 3.2 0.00 1.96 0.00 85 1013.9
20260507012818 15 0 3.2 6.4 0.00 2.31 0.00 84 1014.0
20260507012324 15 0 6.4 12.9 0.00 2.54 0.00 84 1014.0
20260507011818 15 0 1.6 8.0 0.00 2.62 0.00 84 1014.1
20260507011318 15 0 4.8 12.9 0.00 2.69 0.00 84 1014.0
20260507010824 15 0 4.8 9.7 0.00 2.74 0.00 84 1014.1
20260507010321 15 0 3.2 8.0 0.00 2.79 0.00 84 1014.2
20260507005818 15 0 3.2 8.0 0.00 2.82 0.00 84 1014.2
20260507005318 15 0 1.6 9.7 0.00 2.84 0.00 84 1014.2
20260507004821 15 0 3.2 9.7 0.00 2.90 0.00 84 1014.2
20260507004327 15 0 0.0 6.4 0.00 2.92 0.00 84 1014.2
20260507003818 15 0 9.7 14.5 0.00 2.95 0.00 84 1014.1
20260507003318 15 0 3.2 8.0 0.00 3.17 0.00 84 1014.1
20260507002818 15 0 3.2 8.0 0.00 3.25 0.00 84 1014.1
20260507002321 15 0 12.9 16.1 0.00 3.30 0.00 84 1014.1
20260507001821 15 0 0.0 9.7 0.00 3.40 0.00 84 1014.1
20260507001321 15 0 3.2 16.1 0.00 3.48 0.00 84 1014.0
20260507000824 15 0 1.6 6.4 0.00 3.48 0.00 84 1014.1
20260507000321 15 0 3.2 12.9 0.00 3.48 0.00 84 1014.0
20260506235821 15 0 1.6 9.7 0.00 3.48 0.00 84 1014.1
20260506235321 15 0 3.2 9.7 0.00 3.48 0.00 83 1014.1
20260506234818 15 0 6.4 12.9 0.00 3.48 0.00 83 1014.2
20260506234324 15 0 6.4 8.0 0.00 3.48 0.00 83 1014.2
20260506233824 15 0 3.2 9.7 0.00 3.48 0.00 82 1014.2
20260506233318 15 0 4.8 12.9 0.00 3.48 0.00 82 1014.2
20260506232824 15 0 4.8 14.5 0.00 3.48 0.00 82 1014.2
20260506232324 15 0 6.4 14.5 0.00 3.48 0.00 81 1014.1
20260506231818 15 0 6.4 12.9 0.00 3.48 0.00 81 1014.1
20260506231324 15 0 0.0 8.0 0.00 3.48 0.00 81 1014.1
20260506230818 15 0 3.2 14.5 0.00 3.48 0.00 81 1014.1
20260506230318 15 0 1.6 8.0 0.00 3.48 0.00 81 1014.2
20260506225818 15 0 1.6 9.7 0.00 3.48 0.00 81 1014.2
20260506225321 15 0 1.6 12.9 0.00 3.48 0.00 81 1014.2
20260506224818 15 0 3.2 9.7 0.00 3.48 0.00 81 1014.2
20260506224318 15 0 1.6 9.7 0.00 3.48 0.00 81 1014.2
20260506223821 15 0 4.8 9.7 0.00 3.48 0.00 81 1014.2
20260506223318 15 0 6.4 22.5 0.00 3.48 0.00 81 1014.1
20260506222824 15 0 6.4 22.5 0.00 3.48 0.00 81 1014.2
20260506222321 15 0 3.2 12.9 0.00 3.48 0.00 81 1014.2
20260506221824 15 0 3.2 8.0 0.00 3.48 0.00 81 1014.2
20260506221327 15 0 1.6 14.5 0.00 3.48 0.00 82 1014.2
20260506220821 15 0 1.6 12.9 0.00 3.48 0.00 81 1014.3
20260506220318 15 0 4.8 12.9 0.00 3.48 0.00 82 1014.2
20260506215818 15 0 3.2 12.9 0.00 3.48 0.00 81 1014.2
20260506215324 15 0 3.2 16.1 0.00 3.48 0.00 81 1014.2
20260506214824 15 0 1.6 12.9 0.00 3.48 0.00 81 1014.2
20260506214327 15 0 8.0 9.7 0.00 3.48 0.00 82 1014.3
20260506213824 15 0 3.2 17.7 0.00 3.48 0.00 82 1014.2
20260506213321 15 0 3.2 8.0 0.00 3.48 0.00 82 1014.3
20260506212818 15 0 9.7 20.9 0.00 3.48 0.00 82 1014.3
20260506212318 15 0 6.4 17.7 0.00 3.48 0.00 82 1014.2
20260506211818 15 0 3.2 14.5 0.00 3.48 0.00 82 1014.3
20260506211321 15 0 3.2 12.9 0.00 3.48 0.00 82 1014.2